Location: Ch?enovice
(49.7164°N, 15.2160°E)
Time: 07:12:37
(UTC+00:00)

Cosmos 2228 Rocket - Pass Details

Date: 23 May 2024
Orbit: 616 x 648 km, 82.5° (Epoch: 15 June)

Event Time Altitude Azimuth Distance (km) Brightness Sun altitude
Exits shadow 00:05:22 34° 226° (SW) 1,052 3.8 -18.0°
Maximum altitude 00:07:02 53° 284° (WNW) 782 3.5 -17.9°
Drops below altitude 10° 00:11:27 10° 2° (N) 2,036 6.9 -17.7°
Sets 00:13:46 0° 7° (N) 2,955 8.1 -17.6°
